Wind_Speed
10 10 10 10 11 10 10 10 10 10 10 10 10 10 11 10 10 10 10 10 10 10 10 10 10 9 9 9 8 8 7 7 6 6 6 6 6 6 5 4 4 4 3 3
10 10 10 10 11 11 11 10 11 11 11 11 10 10 11 11 10 10 11 11 11 11 11 11 10 10 10 9 9 8 8 7 7 6 6 7 7 7 6 5 5 5 4 4
10 10 10 11 11 11 10 10 10 10 10 11 10 10 11 11 11 11 11 11 11 11 11 11 11 11 11 10 10 9 9 9 8 8 7 7 7 7 7 6 6 5 5 4
11 11 11 11 10 10 10 10 10 10 10 10 10 10 10 11 11 11 11 11 12 12 12 11 11 11 11 11 10 10 10 10 9 9 8 8 8 7 7 7 6 6 5 5
11 11 11 11 10 11 10 10 11 10 11 11 11 11 11 11 11 11 11 12 12 13 13 13 12 12 12 12 11 10 10 10 10 9 9 9 9 8 7 7 7 7 6 6
12 12 12 11 11 11 11 11 11 11 10 10 10 11 11 12 12 11 11 12 13 14 14 13 13 13 13 13 12 12 11 11 11 10 9 9 9 9 8 8 7 7 7 7
12 12 12 11 11 12 12 12 12 12 11 10 9 10 10 11 11 11 11 11 12 13 14 14 14 14 14 14 13 13 12 12 11 10 10 10 10 10 9 9 9 8 8 8
13 12 12 11 11 11 11 12 13 12 12 11 11 10 10 10 10 11 12 12 12 13 13 14 15 14 14 14 14 14 13 13 12 12 11 11 11 10 10 10 9 9 10 9
14 13 12 12 12 12 12 12 13 14 13 13 12 11 11 11 11 11 12 13 13 13 14 14 15 15 15 14 14 14 14 14 13 13 12 12 12 11 11 11 10 10 10 10
15 15 14 14 14 14 14 13 14 14 14 13 13 12 11 11 11 11 11 13 13 13 13 13 14 15 15 15 15 15 14 14 14 13 13 13 13 12 12 12 11 11 11 11
15 16 15 15 15 15 15 15 14 15 15 15 14 12 12 12 12 11 11 12 13 13 14 14 15 15 15 16 16 16 15 14 14 14 14 14 14 13 13 13 12 12 12 12
16 16 16 15 15 15 15 14 15 15 14 15 15 13 13 12 12 12 12 12 13 14 14 14 15 15 16 16 16 16 15 15 15 14 14 14 14 14 13 13 13 12 12 12
18 17 17 16 16 16 15 15 15 15 14 14 14 13 13 13 13 13 13 13 13 13 14 14 15 15 15 16 16 16 16 15 15 15 14 14 14 14 14 14 14 13 13 13
19 19 18 17 16 16 17 16 16 16 15 14 14 13 12 12 13 14 14 14 14 14 14 15 15 15 15 15 15 15 15 16 16 15 15 15 15 14 15 15 14 14 14 14
21 20 19 19 19 18 18 18 17 17 16 15 14 13 12 12 13 14 15 15 15 15 15 15 16 16 15 16 16 16 17 17 16 16 15 15 16 15 15 16 16 15 15 15
22 22 21 21 20 21 20 19 19 18 17 16 15 14 13 13 14 14 15 15 15 15 15 15 16 16 16 17 17 17 17 18 17 17 16 16 16 16 16 17 16 16 16 16
24 24 23 23 22 22 21 18 18 18 18 17 16 14 15 15 15 15 15 15 15 14 15 15 15 16 17 16 17 16 17 18 18 18 17 17 17 17 17 17 16 16 17 17
24 24 25 24 24 25 20 19 19 19 18 18 17 16 16 16 16 16 16 16 16 15 15 16 16 16 16 17 17 17 17 18 18 18 18 18 18 18 18 18 18 18 17 17
26 26 26 25 25 24 21 19 19 20 20 19 18 18 17 17 17 16 15 15 16 16 16 16 17 17 17 17 17 18 18 18 18 18 19 19 19 19 19 19 19 18 18 18
25 26 26 25 25 24 20 19 20 21 20 19 19 18 18 18 18 16 16 16 17 17 17 18 17 17 17 17 17 17 18 18 18 18 18 19 19 19 18 19 19 19 18 18
25 26 26 25 25 23 21 20 20 21 19 19 20 19 20 20 18 17 17 17 18 18 18 18 18 17 17 16 16 16 17 17 17 18 18 18 18 18 18 18 18 18 18 18
26 26 26 25 25 22 21 21 20 19 19 20 20 21 21 20 19 19 18 18 18 18 18 18 18 18 18 17 16 16 16 17 17 17 17 18 18 18 18 18 19 19 20 20
28 27 26 26 24 23 22 22 21 21 20 20 20 21 22 21 21 20 19 18 19 19 19 19 19 19 19 18 17 17 17 17 17 17 17 17 17 17 18 19 19 19 20 19
28 27 28 27 26 25 24 24 23 22 21 21 21 22 22 22 22 22 20 20 19 19 19 19 19 19 19 19 19 18 18 18 18 18 17 17 18 18 19 19 19 20 20 20
28 28 28 28 27 26 25 24 23 24 23 23 22 22 23 23 22 22 21 21 20 19 19 19 19 20 20 20 19 19 19 19 18 18 18 19 19 19 19 20 21 21 20 20
29 29 29 28 28 27 25 25 24 23 23 24 24 24 24 23 23 22 22 21 21 20 20 19 20 20 21 21 20 20 20 19 19 19 19 19 20 21 20 20 20 20 21 22
Wind_Direction
249 246 244 240 233 234 233 236 239 239 237 238 239 237 238 241 238 232 232 233 230 228 224 220 220 221 220 220 222 223 224 224 230 231 228 230 233 232 233 238 249 252 258 269
246 244 241 235 233 232 233 235 238 242 241 241 241 238 238 239 237 236 235 234 232 229 226 225 224 224 222 221 223 227 227 229 231 233 235 233 232 235 235 237 245 249 259 267
242 244 238 234 232 230 231 232 235 240 241 241 241 239 238 238 237 236 237 238 233 229 226 224 225 226 224 225 227 228 229 229 230 232 234 235 235 239 238 239 243 250 262 271
237 239 238 234 233 232 233 233 236 238 239 241 243 238 236 238 240 240 239 239 234 230 228 227 226 226 222 225 226 227 229 230 230 232 234 238 243 243 243 245 246 253 259 266
236 237 237 234 231 233 235 237 239 241 243 243 245 242 235 239 241 243 241 235 231 230 229 229 226 227 226 227 228 229 230 230 231 235 239 241 243 244 246 249 253 254 254 260
235 233 234 231 229 232 236 238 240 243 247 248 246 244 239 239 242 241 238 233 232 231 230 228 228 230 230 230 230 230 230 231 234 236 240 243 243 245 248 250 254 257 254 260
235 234 235 230 231 234 237 238 239 243 247 251 248 247 244 241 242 242 239 233 230 231 230 230 231 233 232 229 230 231 233 235 237 238 241 243 245 247 249 254 256 257 257 261
235 234 236 236 234 239 241 242 246 251 254 254 251 250 249 246 246 249 245 240 234 232 232 235 234 233 230 229 230 231 235 238 240 240 242 244 245 248 252 254 256 258 260 261
232 232 233 235 236 240 243 245 250 254 256 256 253 251 250 256 253 251 247 243 241 240 239 240 238 234 233 231 231 232 236 239 241 241 242 244 247 249 251 252 256 260 262 261
233 231 233 236 238 240 245 249 252 254 257 258 256 255 254 255 253 251 249 246 242 240 241 242 241 240 238 234 234 234 236 240 241 242 243 247 249 251 251 252 255 258 261 260
234 234 235 238 239 241 244 248 252 257 260 259 261 259 257 255 250 249 248 247 246 245 244 244 242 241 238 236 236 236 238 241 242 243 243 246 248 250 251 252 253 257 260 262
235 237 237 239 242 245 246 250 253 258 260 262 265 263 258 255 251 246 247 248 249 245 243 244 244 243 239 237 238 237 238 242 244 243 243 245 247 248 250 251 254 257 261 263
235 238 239 238 240 244 246 249 253 255 259 262 264 265 261 257 254 250 250 248 252 249 247 247 245 243 239 238 238 238 240 241 243 243 244 246 247 249 251 251 256 260 262 261
235 238 240 241 242 244 245 247 251 254 256 261 264 264 261 257 254 254 254 252 254 252 251 249 245 243 239 238 238 237 239 240 242 243 245 246 247 250 253 254 256 260 262 262
237 240 242 243 243 244 245 247 250 254 257 260 261 260 257 254 251 252 252 253 253 254 253 251 246 242 240 240 239 239 239 240 242 242 244 247 249 252 254 255 257 260 263 264
240 241 243 244 245 245 246 247 250 253 256 259 259 257 254 254 252 251 250 252 254 254 256 254 249 244 243 242 241 242 241 242 242 244 247 250 250 252 255 256 259 262 264 265
240 243 243 245 245 248 245 245 249 253 256 259 259 257 254 254 256 255 252 250 252 256 255 254 250 246 243 243 242 243 244 243 244 245 248 248 249 253 256 257 261 263 265 265
238 243 244 246 246 248 249 245 248 251 252 254 255 254 253 255 257 257 254 253 253 256 256 253 249 248 246 245 245 243 244 245 246 246 248 249 252 255 258 259 262 264 264 265
238 240 243 246 247 249 248 249 249 250 249 251 252 251 253 255 255 255 256 255 255 254 253 254 250 248 246 247 245 244 244 244 245 249 251 252 254 257 258 259 261 263 266 269
240 240 242 245 248 250 249 249 250 250 249 250 251 250 250 251 252 254 256 257 257 255 253 255 252 250 249 247 246 247 246 246 247 250 252 254 254 257 259 260 262 265 267 270
238 239 241 243 247 249 248 248 248 249 250 247 247 248 246 249 252 254 254 254 256 256 254 255 255 252 252 250 249 248 246 245 248 251 254 257 258 259 260 260 261 263 266 269
238 238 239 241 245 247 248 249 248 248 249 249 247 246 246 246 248 250 252 254 255 255 254 255 254 253 254 255 254 253 250 249 251 255 257 257 258 258 257 257 259 262 267 269
240 240 240 242 244 244 245 247 248 248 248 248 246 245 247 248 249 250 252 254 254 251 253 254 254 253 253 253 253 254 252 252 255 258 257 256 257 257 257 260 262 265 270 270
240 240 240 241 241 243 244 246 248 248 249 248 247 246 248 250 249 250 252 253 253 253 251 252 253 252 251 250 251 250 250 252 255 257 256 256 257 260 262 264 267 270 273 272
241 240 241 242 241 242 243 244 246 246 245 246 246 246 247 249 250 252 253 252 251 252 250 250 252 251 250 249 249 249 250 252 254 256 255 256 258 260 262 266 268 270 272 275
241 242 243 242 241 243 244 244 244 245 244 244 244 245 247 249 251 252 253 253 252 252 251 250 251 250 249 248 249 251 252 252 253 254 256 256 258 260 263 266 268 270 273 275
Height
5838 5840 5841 5842 5843 5844 5846 5847 5848 5849 5850 5851 5852 5853 5853 5854 5855 5856 5857 5858 5859 5860 5861 5862 5863 5864 5866 5867 5868 5869 5870 5871 5872 5872 5873 5874 5874 5875 5875 5876 5876 5876 5876 5876
5837 5838 5839 5840 5841 5842 5844 5846 5847 5848 5848 5849 5850 5851 5852 5852 5853 5855 5855 5856 5857 5858 5859 5860 5861 5863 5864 5865 5866 5867 5868 5869 5870 5871 5872 5873 5873 5874 5874 5875 5875 5875 5875 5875
5835 5837 5837 5839 5840 5841 5842 5844 5845 5846 5847 5847 5849 5850 5850 5851 5852 5853 5854 5854 5855 5856 5857 5858 5859 5861 5862 5864 5865 5866 5867 5868 5869 5870 5871 5871 5872 5872 5873 5873 5874 5874 5874 5874
5833 5835 5836 5837 5838 5840 5841 5842 5843 5844 5845 5846 5847 5848 5849 5849 5850 5851 5852 5853 5854 5855 5856 5857 5858 5859 5860 5862 5863 5864 5865 5866 5867 5868 5869 5870 5871 5871 5871 5872 5872 5872 5872 5873
5831 5833 5834 5835 5837 5838 5840 5840 5841 5842 5843 5844 5845 5846 5848 5847 5848 5849 5850 5851 5852 5853 5854 5855 5856 5857 5858 5860 5861 5862 5863 5864 5865 5866 5867 5868 5869 5869 5870 5870 5871 5871 5871 5871
5829 5831 5832 5834 5835 5837 5838 5839 5839 5840 5841 5843 5843 5844 5845 5846 5846 5847 5848 5848 5849 5851 5852 5853 5854 5855 5856 5858 5859 5860 5861 5862 5863 5864 5865 5866 5867 5868 5868 5869 5869 5869 5870 5870
5827 5829 5830 5832 5833 5835 5836 5838 5838 5838 5839 5841 5841 5842 5844 5844 5844 5845 5845 5846 5847 5848 5849 5850 5852 5853 5854 5855 5856 5858 5859 5860 5861 5862 5863 5864 5865 5866 5866 5867 5867 5868 5868 5868
5825 5827 5829 5830 5832 5833 5834 5836 5837 5838 5838 5839 5839 5840 5842 5842 5842 5842 5843 5844 5845 5846 5847 5848 5849 5850 5851 5852 5854 5855 5856 5858 5859 5860 5861 5862 5863 5863 5864 5865 5865 5865 5866 5866
5823 5825 5826 5828 5829 5831 5831 5832 5834 5835 5835 5836 5837 5839 5840 5839 5839 5840 5840 5841 5842 5843 5844 5845 5846 5847 5848 5850 5851 5852 5854 5855 5856 5857 5858 5859 5860 5861 5862 5862 5863 5863 5863 5863
5820 5822 5824 5825 5827 5828 5830 5830 5831 5832 5832 5833 5835 5836 5837 5837 5837 5837 5838 5838 5839 5840 5841 5842 5843 5844 5845 5847 5848 5850 5851 5852 5853 5854 5855 5856 5857 5858 5859 5859 5860 5860 5861 5861
5817 5819 5821 5822 5824 5825 5827 5828 5828 5829 5829 5830 5831 5835 5834 5834 5835 5835 5835 5836 5836 5837 5838 5839 5840 5841 5842 5844 5845 5846 5848 5849 5850 5851 5852 5853 5854 5855 5856 5857 5857 5857 5858 5858
5813 5815 5817 5819 5821 5822 5823 5824 5825 5827 5827 5827 5828 5833 5830 5831 5831 5832 5833 5833 5833 5834 5835 5836 5837 5838 5839 5840 5842 5843 5844 5846 5847 5848 5849 5850 5851 5852 5853 5854 5854 5855 5855 5855
5809 5811 5813 5815 5819 5819 5819 5821 5822 5823 5824 5824 5825 5829 5827 5828 5828 5829 5829 5830 5830 5831 5832 5833 5833 5834 5835 5837 5838 5840 5841 5842 5843 5845 5846 5847 5848 5849 5850 5850 5851 5852 5852 5852
5805 5807 5810 5812 5813 5814 5816 5817 5818 5819 5820 5821 5822 5823 5824 5824 5825 5826 5826 5827 5827 5828 5829 5829 5830 5831 5832 5833 5835 5836 5837 5839 5840 5841 5842 5843 5844 5845 5846 5847 5848 5848 5848 5848
5800 5802 5804 5807 5809 5810 5812 5814 5814 5815 5817 5817 5819 5819 5821 5821 5822 5822 5823 5823 5824 5825 5825 5826 5826 5827 5828 5830 5831 5832 5834 5835 5836 5837 5839 5840 5841 5842 5843 5843 5844 5844 5844 5845
5795 5797 5800 5802 5804 5805 5807 5809 5811 5812 5813 5813 5814 5816 5817 5817 5818 5818 5819 5820 5821 5821 5821 5822 5822 5823 5824 5825 5827 5828 5830 5831 5833 5834 5835 5836 5837 5838 5839 5839 5840 5840 5841 5841
5790 5792 5794 5797 5799 5799 5802 5806 5806 5807 5808 5809 5810 5813 5813 5813 5814 5814 5815 5816 5817 5817 5817 5818 5819 5819 5820 5821 5823 5824 5825 5827 5828 5830 5831 5832 5833 5834 5835 5835 5836 5836 5836 5837
5784 5786 5788 5791 5793 5794 5800 5801 5802 5803 5804 5805 5806 5807 5808 5809 5810 5810 5811 5812 5812 5813 5813 5814 5814 5815 5816 5817 5818 5820 5821 5822 5824 5825 5826 5828 5829 5829 5830 5831 5832 5832 5832 5832
5778 5780 5782 5785 5786 5788 5793 5795 5797 5797 5799 5800 5801 5803 5804 5804 5805 5806 5807 5807 5808 5808 5809 5810 5810 5811 5812 5813 5814 5816 5817 5818 5820 5821 5822 5823 5824 5825 5826 5826 5827 5827 5828 5828
5771 5774 5777 5778 5780 5783 5789 5791 5791 5792 5794 5796 5796 5798 5799 5799 5801 5803 5803 5803 5803 5804 5805 5805 5806 5806 5807 5808 5809 5811 5812 5814 5815 5817 5818 5819 5820 5820 5821 5822 5822 5823 5823 5823
5764 5767 5770 5772 5774 5777 5782 5784 5785 5787 5789 5790 5791 5792 5793 5794 5796 5798 5798 5798 5799 5799 5800 5800 5801 5802 5803 5804 5805 5806 5808 5809 5811 5812 5813 5814 5815 5816 5817 5817 5818 5818 5818 5819
5758 5761 5764 5766 5768 5774 5776 5777 5780 5781 5782 5783 5785 5786 5787 5789 5790 5792 5792 5793 5794 5794 5795 5796 5797 5798 5799 5800 5801 5802 5803 5805 5806 5807 5808 5809 5810 5811 5812 5813 5813 5813 5813 5813
5751 5755 5758 5761 5765 5767 5769 5771 5773 5774 5776 5777 5779 5781 5782 5783 5785 5786 5787 5788 5789 5789 5790 5791 5792 5793 5794 5795 5796 5798 5799 5800 5801 5802 5803 5804 5805 5806 5807 5807 5808 5808 5808 5808
5745 5747 5750 5754 5757 5760 5762 5764 5766 5768 5769 5771 5773 5774 5776 5777 5779 5781 5782 5783 5783 5784 5785 5786 5787 5788 5789 5790 5792 5793 5794 5796 5797 5798 5799 5800 5800 5801 5802 5803 5803 5803 5803 5803
5737 5740 5743 5746 5750 5752 5755 5757 5759 5761 5763 5764 5766 5768 5769 5771 5773 5774 5776 5777 5778 5779 5780 5780 5782 5783 5784 5785 5786 5788 5789 5791 5792 5793 5794 5795 5796 5796 5797 5797 5797 5798 5798 5798
5729 5732 5736 5739 5742 5745 5748 5750 5751 5753 5755 5757 5759 5761 5763 5764 5766 5768 5769 5771 5772 5773 5774 5775 5776 5777 5778 5780 5781 5782 5784 5785 5786 5787 5788 5789 5790 5791 5791 5791 5792 5792 5792 5792